�������C�����ː����j�^�v���󋵏��
Date,Time,Cs137(Bq/L),Cs134(Bq/L),�S��(Bq/L)
2017/02/18,00:00,0.97,0.12,ND
2017/02/18,00:10,0.99,0.11,ND
2017/02/18,00:20,0.99,0.11,ND
2017/02/18,00:30,1.0,0.10,ND
2017/02/18,00:40,1.0,0.10,ND
2017/02/18,00:50,1.0,0.091,11
2017/02/18,01:00,1.0,0.10,13
2017/02/18,01:10,1.1,0.094,9.6
2017/02/18,01:20,1.0,0.11,ND
2017/02/18,01:30,1.1,0.11,10
2017/02/18,01:40,1.0,0.10,ND
2017/02/18,01:50,0.99,0.11,ND
2017/02/18,02:00,0.99,0.11,ND
2017/02/18,02:10,0.99,0.099,ND
2017/02/18,02:20,0.91,0.11,9.6
2017/02/18,02:30,0.91,0.10,ND
2017/02/18,02:40,0.89,0.11,ND
2017/02/18,02:50,1.0,0.086,ND
2017/02/18,03:00,1.0,0.084,ND
2017/02/18,03:10,1.0,0.091,ND
2017/02/18,03:20,1.0,0.089,ND
2017/02/18,03:30,1.0,0.091,10
2017/02/18,03:40,1.0,0.096,10
2017/02/18,03:50,0.99,0.096,10
2017/02/18,04:00,0.96,0.10,10
2017/02/18,04:10,0.92,0.10,ND
2017/02/18,04:20,0.90,0.094,ND
2017/02/18,04:30,0.84,0.10,11
2017/02/18,04:40,0.85,0.11,13
2017/02/18,04:50,0.83,0.11,13
2017/02/18,05:00,0.69,0.12,13
2017/02/18,05:10,0.81,0.10,14
2017/02/18,05:20,0.81,0.10,13
2017/02/18,05:30,0.84,0.095,10
2017/02/18,05:40,0.82,0.090,12
2017/02/18,05:50,0.81,0.089,13
2017/02/18,06:00,0.83,0.083,12
2017/02/18,06:10,0.84,0.086,10
2017/02/18,06:20,0.83,0.083,12
2017/02/18,06:30,0.83,0.079,13
2017/02/18,06:40,0.83,0.074,10
2017/02/18,06:50,0.84,0.070,10
2017/02/18,07:00,0.83,0.082,9.5
2017/02/18,07:10,0.83,0.073,12
2017/02/18,07:20,0.85,0.071,10
2017/02/18,07:30,0.84,0.064,9.7
2017/02/18,07:40,0.83,0.065,10
2017/02/18,07:50,0.82,0.067,ND
2017/02/18,08:00,0.83,0.064,9.6
2017/02/18,08:10,0.82,0.076,ND
2017/02/18,08:20,0.80,0.083,8.8
2017/02/18,08:30,0.78,0.088,ND
2017/02/18,08:40,0.81,0.088,ND
2017/02/18,08:50,0.81,0.092,10
2017/02/18,09:00,0.86,0.091,9.0
2017/02/18,09:10,0.85,0.087,8.9
2017/02/18,09:20,0.87,0.088,ND
2017/02/18,09:30,0.86,0.10,9.7
2017/02/18,09:40,0.86,0.10,10
2017/02/18,09:50,0.87,0.098,9.6
2017/02/18,10:00,0.86,0.10,12
2017/02/18,10:10,0.86,0.11,13
2017/02/18,10:20,0.84,0.11,14
2017/02/18,10:30,0.85,0.10,13
2017/02/18,10:40,0.84,0.095,13
2017/02/18,10:50,0.86,0.096,14
2017/02/18,11:00,0.88,0.091,11
2017/02/18,11:10,0.87,0.077,ND
2017/02/18,11:20,0.90,0.074,ND
2017/02/18,11:30,0.91,0.072,11
2017/02/18,11:40,0.92,0.083,9.7
2017/02/18,11:50,0.91,0.085,ND
2017/02/18,12:00,0.91,0.082,9.0
2017/02/18,12:10,0.89,0.093,13
2017/02/18,12:20,0.90,0.099,11
2017/02/18,12:30,0.89,0.10,10
2017/02/18,12:40,0.89,0.093,10
2017/02/18,12:50,0.92,0.12,13
2017/02/18,13:00,0.92,0.13,9.7
2017/02/18,13:10,0.97,0.11,9.6
2017/02/18,13:20,0.95,0.11,11
2017/02/18,13:30,0.98,0.11,11
2017/02/18,13:40,1.0,0.11,15
2017/02/18,13:50,0.99,0.091,14
2017/02/18,14:00,0.98,0.092,17
2017/02/18,14:10,0.97,0.10,14
2017/02/18,14:20,0.99,0.11,15
2017/02/18,14:30,1.0,0.099,16
2017/02/18,14:40,1.0,0.10,15
2017/02/18,14:50,0.99,0.10,19
2017/02/18,15:00,1.0,0.099,18
2017/02/18,15:10,0.97,0.091,19
2017/02/18,15:20,0.93,0.086,16
2017/02/18,15:30,0.88,0.10,15
2017/02/18,15:40,0.84,0.097,12
2017/02/18,15:50,0.83,0.098,9.5
2017/02/18,16:00,0.80,0.096,ND
2017/02/18,16:10,0.80,0.11,9.3
2017/02/18,16:20,0.81,0.11,12
2017/02/18,16:30,0.81,0.11,9.0
2017/02/18,16:40,0.83,0.10,9.2
2017/02/18,16:50,0.82,0.10,ND
2017/02/18,17:00,0.80,0.10,ND
2017/02/18,17:10,0.82,0.096,ND
2017/02/18,17:20,0.80,0.097,ND
2017/02/18,17:30,0.85,0.098,10
2017/02/18,17:40,0.84,0.10,10
2017/02/18,17:50,0.76,0.094,14
2017/02/18,18:00,0.83,0.075,12
2017/02/18,18:10,0.81,0.065,15
2017/02/18,18:20,0.74,0.071,11
2017/02/18,18:30,0.73,0.072,10
2017/02/18,18:40,0.79,0.073,10
2017/02/18,18:50,0.75,0.077,10
2017/02/18,19:00,0.74,0.088,12
2017/02/18,19:10,0.85,0.080,ND
2017/02/18,19:20,0.85,0.081,9.3
2017/02/18,19:30,0.86,0.074,ND
2017/02/18,19:40,0.85,0.073,ND
2017/02/18,19:50,0.84,0.073,ND
2017/02/18,20:00,0.82,0.074,ND
2017/02/18,20:10,0.80,0.080,ND
2017/02/18,20:20,0.83,0.064,ND
2017/02/18,20:30,0.82,0.069,ND
2017/02/18,20:40,0.82,0.070,ND
2017/02/18,20:50,0.83,0.072,ND
2017/02/18,21:00,0.82,0.071,ND
2017/02/18,21:10,0.83,0.076,ND
2017/02/18,21:20,0.82,0.078,ND
2017/02/18,21:30,0.83,0.079,ND
2017/02/18,21:40,0.83,0.067,ND
2017/02/18,21:50,0.83,0.063,9.5
2017/02/18,22:00,0.84,0.074,13
2017/02/18,22:10,0.83,0.069,16
2017/02/18,22:20,0.82,0.076,16
2017/02/18,22:30,0.80,0.081,20
2017/02/18,22:40,0.80,0.096,17
2017/02/18,22:50,0.80,0.099,15
2017/02/18,23:00,0.73,0.11,15
2017/02/18,23:10,0.82,0.098,12
2017/02/18,23:20,0.81,0.095,15
2017/02/18,23:30,0.83,0.093,10
2017/02/18,23:40,0.83,0.097,10
2017/02/18,23:50,0.83,0.10,11
